Flag for U.S.A. Weather past 2 weeks in Spartanburg, South Carolina, U.S.A.

Now
88 °F

Sunny.


Feels Like: 90 °F
Forecast: 71 / 94 °F
Wind: No wind

Location: Spartanburg Memorial

Current Time: Aug 21, 2014 at 12:16:03 PM

Latest Report: Aug 21, 2014 at 11:35 AM


Visibility: 10 mi

Pressure: 30.14 "Hg

Humidity: 49%

Dew point: 66 °F

Location of SpartanburgLocation

Historic Weather in Spartanburg — Graph

°F

Spartanburg temperature yesterday

Maximum temperature yesterday: 91 °F (at 2:35 PM)
Minimum temperature yesterday: 70 °F (at 2:15 AM)
Average temperature yesterday: 80 °F

Past Weeks' High & Low Weather Summary

 TemperatureHumidityPressure
High91 °F (Aug 7, 3:15 PM)100% (Aug 7, 5:15 AM)30.15 "Hg (Aug 7, 5:15 AM)
Low63 °F (Aug 14, 6:15 AM)40% (Aug 6, 1:15 PM)29.80 "Hg (Aug 12, 6:15 PM)
Average77 °F80%30.00 "Hg
* Reported Aug 6 11:15 AM — Aug 21 11:15 AM, Spartanburg, Weather by CustomWeather, © 2014

Note: Actual official high and low records may vary slightly from our data, if they occured in-between our weather recording intervals... More about our weather records

Advertising

Spartanburg weather history for previous 24 hours

 ConditionsComfort  
Time TempWeatherWind HumidityBarometerVisibility
11:15 AM
Aug 21
88 °FSunny.No wind52%30.13 "Hg10 mi
10:35 AM82 °FSunny.No wind58%30.13 "Hg10 mi
10:15 AM82 °FSunny.No wind55%30.12 "Hg10 mi
9:35 AM81 °FSunny.3 mph62%30.12 "Hg10 mi
9:15 AM79 °FSunny.No wind61%30.11 "Hg10 mi
8:35 AM77 °FSunny.No wind65%30.11 "Hg10 mi
8:15 AM72 °FSunny.No wind94%30.11 "Hg10 mi
7:35 AM68 °FClear.No wind100%30.10 "Hg10 mi
7:15 AM68 °FClear.No wind100%30.09 "Hg10 mi
6:35 AM68 °FClear.No wind100%30.07 "Hg10 mi
6:15 AM70 °FClear.No wind100%30.07 "Hg10 mi
5:35 AM70 °FClear.No wind94%30.06 "Hg10 mi
5:15 AM70 °FClear.No wind83%30.05 "Hg10 mi
4:35 AM72 °FClear.No wind78%30.04 "Hg10 mi
4:15 AM73 °FClear.6 mph74%30.04 "Hg10 mi
3:35 AM72 °FClear.No wind78%30.04 "Hg10 mi
3:15 AM72 °FClear.No wind78%30.03 "Hg10 mi
2:35 AM73 °FClear.No wind69%30.04 "Hg10 mi
2:15 AM73 °FClear.5 mph74%30.04 "Hg10 mi
1:35 AM75 °FClear.No wind69%30.04 "Hg10 mi
1:15 AM77 °FClear.No wind65%30.04 "Hg10 mi
12:35 AM81 °FClear.7 mph51%30.05 "Hg10 mi
12:15 AM81 °FClear.10 mph51%30.06 "Hg10 mi
11:35 PM
Aug 20
81 °FClear.14 mph58%30.07 "Hg10 mi
11:15 PM81 °FClear.12 mph62%30.08 "Hg10 mi
10:35 PM79 °FClear.No wind65%30.06 "Hg10 mi
10:15 PM79 °FClear.3 mph65%30.05 "Hg10 mi
9:35 PM81 °FClear.8 mph70%30.05 "Hg10 mi
9:15 PM81 °FClear.6 mph70%30.03 "Hg10 mi
8:35 PM82 °FSunny.3 mph74%30.01 "Hg10 mi
8:15 PM82 °FSunny.5 mph79%30.01 "Hg10 mi
7:35 PM84 °FSunny.No wind70%30.00 "Hg10 mi
7:15 PM86 °FSunny.No wind66%30.00 "Hg10 mi
6:35 PM86 °FSunny.No wind62%30.00 "Hg10 mi
6:15 PM88 °FSunny.No wind59%29.99 "Hg10 mi
5:35 PM90 °FSunny.No wind52%29.99 "Hg10 mi
5:15 PM90 °FSunny.No wind49%29.98 "Hg10 mi
4:35 PM86 °FSunny.No wind49%30.00 "Hg10 mi
4:15 PM86 °FSunny.No wind46%30.00 "Hg10 mi
3:35 PM82 °FThundershowers. Partly sunny.16 mph55%30.04 "Hg10 mi
3:15 PM91 °FBroken clouds.6 mph52%30.02 "Hg10 mi
2:35 PM91 °FBroken clouds.7 mph52%30.02 "Hg10 mi
2:15 PM90 °FPartly sunny.5 mph52%30.02 "Hg10 mi
1:35 PM90 °FBroken clouds.5 mph55%30.04 "Hg10 mi
1:15 PM88 °FScattered clouds.No wind55%30.04 "Hg10 mi
12:35 PM88 °FScattered clouds.No wind55%30.04 "Hg10 mi
12:15 PM88 °FSunny.No wind55%30.04 "Hg10 mi
Weather by CustomWeather, © 2014

See weather overviewHow to use our weather pages